Date String (YYYY-MM-DD hh:mm:ss) UTC,Instrument flags,Ambient pressure (hPa),Sample flow (lpm),Bypass flow (lpm),Sample temperature (°C),Ambient temperature (°C),ASC tube jacket temperature (°C),LED temperature (°C),Box temperature (°C),Sample RH (%),Span deviation,Mass concentration (μg/m³),Mass concentration (μg/m³),Mass concentration (μg/m³)
DateTimeUTC,F1_M11,P_M11,Q1_M11,Q2_M11,T1_M11,T2_M11,T3_M11,T4_M11,T5_M11,U1_M11,ZSPAN_M11,X0_M11,X2_M11,X1_M11
2022-12-26 20:00:00,,0828.0,5.02,0.00,24.0,23.0,00.0,32.7,25.9,16.5,0000.0,0007.98,0005.12,0004.82
2022-12-26 20:01:00,,0827.9,4.99,0.00,24.0,23.0,00.0,32.7,25.9,16.6,0000.0,0007.95,0005.10,0004.80
2022-12-26 20:02:00,,0827.9,4.96,0.00,24.1,23.0,00.0,32.7,25.8,16.4,0000.0,0007.97,0005.10,0004.77
2022-12-26 20:03:00,,0827.9,4.99,0.00,24.1,23.0,00.0,32.8,25.9,16.3,0000.0,0008.07,0005.09,0004.76
2022-12-26 20:04:00,,0827.9,5.03,0.00,24.1,23.0,00.0,32.8,25.9,16.2,0000.0,0008.10,0005.07,0004.73
2022-12-26 20:05:00,,0827.9,5.01,0.00,24.1,23.1,00.0,32.8,25.9,16.3,0000.0,0008.32,0005.05,0004.71
2022-12-26 20:06:00,,0827.9,4.98,0.00,24.1,23.1,00.0,32.8,25.9,16.4,0000.0,0008.26,0005.01,0004.68
2022-12-26 20:07:00,,0827.9,4.98,0.00,24.1,23.1,00.0,32.8,26.0,16.7,0000.0,0008.11,0004.99,0004.67
2022-12-26 20:08:00,,0827.9,5.01,0.00,24.2,23.1,00.0,32.9,26.0,16.6,0000.0,0007.63,0004.97,0004.67
2022-12-26 20:09:00,,0827.9,5.02,0.00,24.2,23.1,00.0,32.9,26.0,16.3,0000.0,0008.31,0004.95,0004.66
2022-12-26 20:10:00,,0827.9,5.01,0.00,24.2,23.1,00.0,32.9,26.1,16.1,0000.0,0008.82,0004.92,0004.65
2022-12-26 20:11:00,,0827.9,4.98,0.00,24.2,23.1,00.0,32.9,26.1,16.5,0000.0,0008.81,0004.92,0004.65
2022-12-26 20:12:00,,0827.9,4.97,0.00,24.2,23.1,00.0,32.9,26.0,16.3,0000.0,0008.99,0004.91,0004.65
2022-12-26 20:13:00,,0827.9,5.03,0.00,24.2,23.2,00.0,32.9,26.1,16.2,0000.0,0009.34,0004.89,0004.64
2022-12-26 20:14:00,,0827.9,5.02,0.00,24.2,23.2,00.0,33.0,26.1,16.4,0000.0,0009.54,0004.87,0004.63
2022-12-26 20:15:00,,0827.9,4.99,0.00,24.2,23.2,00.0,33.0,26.1,16.0,0000.0,0009.82,0004.86,0004.64
2022-12-26 20:16:00,,0827.8,4.97,0.00,24.2,23.2,00.0,33.0,26.1,16.1,0000.0,0009.61,0004.84,0004.64
2022-12-26 20:17:00,,0827.8,4.98,0.00,24.2,23.2,00.0,33.0,26.1,16.1,0000.0,0009.68,0004.87,0004.64
2022-12-26 20:18:00,,0827.7,5.02,0.00,24.3,23.2,00.0,33.0,26.1,15.9,0000.0,0009.70,0004.87,0004.62
2022-12-26 20:19:00,,0827.7,5.03,0.00,24.3,23.2,00.0,33.0,26.1,15.9,0000.0,0009.57,0004.84,0004.61
2022-12-26 20:20:00,,0827.7,5.00,0.00,24.3,23.2,00.0,33.0,26.2,15.8,0000.0,0009.02,0004.81,0004.60
2022-12-26 20:21:00,,0827.7,4.99,0.00,24.3,23.2,00.0,33.0,26.2,15.8,0000.0,0008.61,0004.79,0004.59
2022-12-26 20:22:00,,0827.7,4.99,0.00,24.3,23.1,00.0,33.0,26.2,15.7,0000.0,0008.80,0004.76,0004.58
2022-12-26 20:23:00,,0827.7,5.02,0.00,24.3,23.1,00.0,33.0,26.1,15.9,0000.0,0009.06,0004.74,0004.58
2022-12-26 20:24:00,,0827.7,5.02,0.00,24.2,23.0,00.0,33.0,26.1,15.7,0000.0,0008.64,0004.74,0004.59
2022-12-26 20:25:00,,0827.8,4.98,0.00,24.2,23.0,00.0,33.0,26.1,15.7,0000.0,0009.37,0004.75,0004.59
2022-12-26 20:26:00,,0827.7,4.97,0.00,24.2,23.0,00.0,33.1,26.1,15.8,0000.0,0008.99,0004.74,0004.58
2022-12-26 20:27:00,,0827.7,5.03,0.00,24.2,23.0,00.0,33.1,26.1,16.0,0000.0,0008.84,0004.73,0004.56
2022-12-26 20:28:00,,0827.6,5.03,0.00,24.2,23.0,00.0,33.1,26.1,16.0,0000.0,0008.89,0004.74,0004.55
2022-12-26 20:29:00,,0827.6,5.02,0.00,24.2,23.1,00.0,33.1,26.1,16.1,0000.0,0008.91,0004.75,0004.56
2022-12-26 20:30:00,,0827.5,4.97,0.00,24.2,23.1,00.0,33.1,26.1,16.0,0000.0,0009.04,0004.80,0004.58
2022-12-26 20:31:00,,0827.5,4.97,0.00,24.2,23.1,00.0,33.1,26.1,16.0,0000.0,0008.90,0004.83,0004.60
2022-12-26 20:32:00,,0827.6,5.02,0.00,24.2,23.1,00.0,33.1,26.1,16.0,0000.0,0008.76,0004.88,0004.61
2022-12-26 20:33:00,,0827.5,5.03,0.00,24.3,23.1,00.0,33.1,26.1,16.2,0000.0,0008.56,0004.92,0004.62
2022-12-26 20:34:00,,0827.4,4.99,0.00,24.3,23.2,00.0,33.1,26.2,16.1,0000.0,0008.17,0004.93,0004.62
2022-12-26 20:35:00,,0827.4,4.96,0.00,24.3,23.2,00.0,33.1,26.1,16.2,0000.0,0008.23,0004.94,0004.63
2022-12-26 20:36:00,,0827.4,5.00,0.00,24.3,23.2,00.0,33.1,26.2,16.3,0000.0,0007.29,0004.94,0004.64
2022-12-26 20:37:00,,0827.4,5.02,0.00,24.3,23.2,00.0,33.1,26.2,16.2,0000.0,0007.20,0004.96,0004.65
2022-12-26 20:38:00,,0827.4,5.02,0.00,24.3,23.2,00.0,33.1,26.2,15.9,0000.0,0007.33,0004.99,0004.67
2022-12-26 20:39:00,,0827.4,4.99,0.00,24.3,23.2,00.0,33.1,26.2,15.7,0000.0,0007.74,0004.98,0004.68
2022-12-26 20:40:00,,0827.4,4.97,0.00,24.3,23.2,00.0,33.1,26.2,15.7,0000.0,0008.14,0004.97,0004.68
2022-12-26 20:41:00,,0827.4,5.00,0.00,24.3,23.2,00.0,33.1,26.3,15.7,0000.0,0008.10,0004.97,0004.67
2022-12-26 20:42:00,,0827.4,5.03,0.00,24.4,23.2,00.0,33.1,26.2,15.8,0000.0,0008.22,0004.96,0004.66
2022-12-26 20:43:00,,0827.2,5.02,0.00,24.4,23.2,00.0,33.2,26.3,15.8,0000.0,0008.38,0004.94,0004.66
2022-12-26 20:44:00,,0827.2,4.98,0.00,24.4,23.3,00.0,33.2,26.3,15.7,0000.0,0008.25,0004.90,0004.66
2022-12-26 20:45:00,,0827.1,4.97,0.00,24.4,23.3,00.0,33.2,26.3,15.9,0000.0,0008.15,0004.87,0004.65
2022-12-26 20:46:00,,0827.1,5.01,0.00,24.4,23.3,00.0,33.2,26.3,15.8,0000.0,0008.28,0004.87,0004.65
2022-12-26 20:47:00,,0827.1,5.03,0.00,24.4,23.3,00.0,33.2,26.3,15.7,0000.0,0008.38,0004.88,0004.65
2022-12-26 20:48:00,,0827.1,5.03,0.00,24.4,23.3,00.0,33.2,26.3,15.7,0000.0,0008.40,0004.89,0004.64
2022-12-26 20:49:00,,0827.1,4.97,0.00,24.4,23.3,00.0,33.2,26.3,15.7,0000.0,0009.30,0004.89,0004.64
2022-12-26 20:50:00,,0827.1,4.96,0.00,24.4,23.3,00.0,33.2,26.3,16.0,0000.0,0009.00,0004.89,0004.63
2022-12-26 20:51:00,,0827.3,4.99,0.00,24.5,23.3,00.0,33.2,26.3,16.1,0000.0,0008.57,0004.92,0004.66
2022-12-26 20:52:00,,0827.4,5.03,0.00,24.5,23.3,00.0,33.2,26.3,15.9,0000.0,0008.54,0004.91,0004.67
2022-12-26 20:53:00,,0827.3,5.01,0.00,24.5,23.3,00.0,33.3,26.4,15.7,0000.0,0008.49,0004.94,0004.68
2022-12-26 20:54:00,,0827.4,4.98,0.00,24.5,23.3,00.0,33.3,26.4,15.6,0000.0,0008.33,0004.95,0004.69
2022-12-26 20:55:00,,0827.2,4.97,0.00,24.5,23.3,00.0,33.3,26.4,15.5,0000.0,0008.36,0004.96,0004.70
2022-12-26 20:56:00,,0827.0,4.99,0.00,24.5,23.4,00.0,33.3,26.4,15.8,0000.0,0008.40,0004.99,0004.72
2022-12-26 20:57:00,,0827.1,5.01,0.00,24.5,23.4,00.0,33.3,26.3,15.9,0000.0,0008.27,0005.01,0004.72
2022-12-26 20:58:00,,0827.0,4.98,0.00,24.5,23.4,00.0,33.3,26.4,15.9,0000.0,0008.24,0005.01,0004.73
2022-12-26 20:59:00,,0827.0,5.01,0.00,24.5,23.3,00.0,33.3,26.4,15.8,0000.0,0008.24,0005.02,0004.75
